User: anonymous   Login
Location: Unspecified
(0.0000°N, 0.0000°E)
Time: 08:37:35
(UTC+02:00)
Language:

Cosmos 1980 Rocket - Orbit

View from above orbital plane
View from above orbital plane
View from above satellite
View from above satellite

Ground track
Ground track

The orbit data is extracted from the following two-line orbital elements,

1 19650U 88102B   17232.51651625 -.00000237 +00000-0 -96131-4 0  9994
2 19650 070.9973 239.8293 0011934 083.7875 276.4607 14.15759351484829
Epoch (UTC): 20 August 2017 12:23:47
Eccentricity: 0.0011934
inclination: 70.9973°
perigee height: 831 km
apogee height: 848 km
right ascension of ascending node: 239.8293°
argument of perigee: 83.7875°
revolutions per day: 14.15759351
mean anomaly at epoch: 276.4607°
orbit number at epoch: 48482

The dashed part of the orbit path shows where the satellite is in the earth's shadow,  

DLR